TimeEST,TemperatureF,Dew PointF,Humidity,Sea Level PressureIn,VisibilityMPH,Wind Direction,Wind SpeedMPH,Gust SpeedMPH,PrecipitationIn,Events,Conditions,WindDirDegrees,DateUTC
12:15 AM,25.0,23.0,92,29.68,1.0,North,8.1,-,0.01,Snow,Light Snow,10,2014-02-15 05:15:00
12:48 AM,24.8,23.0,93,29.67,1.0,NNE,8.1,-,0.02,Snow,Light Snow,20,2014-02-15 05:48:00
12:53 AM,25.0,23.0,92,29.72,1.0,North,9.2,-,0.02,Snow,Light Snow,10,2014-02-15 05:53:00
1:30 AM,25.0,23.0,92,29.66,1.2,North,9.2,-,0.01,Snow,Light Snow,360,2014-02-15 06:30:00
1:42 AM,25.0,21.9,88,29.66,1.5,North,8.1,-,0.01,Snow,Light Snow,10,2014-02-15 06:42:00
1:53 AM,25.0,21.9,88,29.71,1.5,North,6.9,-,0.01,Snow,Light Snow,10,2014-02-15 06:53:00
2:03 AM,24.1,21.9,91,29.66,1.5,NNE,11.5,-,0.00,Snow,Light Snow,20,2014-02-15 07:03:00
2:28 AM,24.1,21.0,88,29.66,1.5,North,6.9,-,0.00,Snow,Light Snow,350,2014-02-15 07:28:00
2:53 AM,23.0,21.0,92,29.71,1.5,North,8.1,-,0.00,Snow,Light Snow,360,2014-02-15 07:53:00
3:53 AM,23.0,19.9,88,29.71,1.0,North,8.1,-,0.00,Snow,Light Snow,350,2014-02-15 08:53:00
4:09 AM,23.0,19.9,88,29.67,1.8,NNW,10.4,-,0.00,Snow,Light Snow,340,2014-02-15 09:09:00
4:53 AM,21.9,19.9,92,29.73,1.8,NNW,11.5,-,0.01,Snow,Light Snow,330,2014-02-15 09:53:00
5:08 AM,21.9,19.9,92,29.69,1.8,NNW,10.4,-,0.00,Snow,Light Snow,340,2014-02-15 10:08:00
5:51 AM,21.2,19.4,93,29.72,1.0,NW,10.4,-,0.00,Snow,Light Snow,320,2014-02-15 10:51:00
5:53 AM,21.9,19.0,89,29.77,1.0,NNW,9.2,-,0.00,Snow,Light Snow,330,2014-02-15 10:53:00
6:21 AM,21.0,19.0,92,29.74,1.2,NNW,12.7,-,0.00,Snow,Light Snow,330,2014-02-15 11:21:00
6:34 AM,21.0,18.0,88,29.75,1.2,NW,13.8,-,0.00,Snow,Light Snow,320,2014-02-15 11:34:00
6:53 AM,21.0,18.0,88,29.81,1.5,NNW,13.8,-,0.00,Snow,Light Snow,330,2014-02-15 11:53:00
6:57 AM,21.0,18.0,88,29.76,1.5,NNW,10.4,-,0.00,Snow,Light Snow,330,2014-02-15 11:57:00
7:30 AM,21.0,18.0,88,29.78,1.2,NNW,12.7,-,0.00,Snow,Light Snow,330,2014-02-15 12:30:00
7:50 AM,21.2,17.6,86,29.80,0.8,NW,12.7,-,0.00,Snow,Light Snow,310,2014-02-15 12:50:00
7:53 AM,21.0,18.0,88,29.86,0.8,NW,11.5,-,0.00,Snow,Light Snow,320,2014-02-15 12:53:00
7:59 AM,21.0,18.0,88,29.81,1.5,NW,9.2,-,0.00,Snow,Light Snow,310,2014-02-15 12:59:00
8:06 AM,21.0,18.0,88,29.82,3.0,NW,10.4,-,0.00,,Overcast,320,2014-02-15 13:06:00
8:16 AM,21.0,17.1,85,29.82,4.0,NW,9.2,-,0.00,,Overcast,310,2014-02-15 13:16:00
8:34 AM,21.9,16.0,78,29.83,5.0,NNW,11.5,-,0.00,,Haze,330,2014-02-15 13:34:00
8:53 AM,21.9,16.0,78,29.90,5.0,NW,11.5,19.6,0.00,,Haze,310,2014-02-15 13:53:00
9:32 AM,21.9,16.0,78,29.86,6.0,NW,12.7,19.6,N/A,,Haze,310,2014-02-15 14:32:00
9:51 AM,21.2,15.8,80,29.87,6.0,WNW,12.7,18.4,N/A,,Haze,290,2014-02-15 14:51:00
9:53 AM,21.9,16.0,78,29.93,6.0,WNW,12.7,18.4,N/A,,Haze,300,2014-02-15 14:53:00
10:18 AM,23.0,17.1,78,29.88,4.0,NW,12.7,-,0.00,,Haze,310,2014-02-15 15:18:00
10:53 AM,24.1,17.1,75,29.94,6.0,WNW,15.0,23.0,0.00,,Haze,290,2014-02-15 15:53:00
11:53 AM,24.1,16.0,71,29.94,4.0,NW,13.8,-,0.00,Snow,Light Snow,320,2014-02-15 16:53:00
12:33 PM,25.0,17.1,72,29.89,4.0,WNW,12.7,-,0.00,Snow,Light Snow,300,2014-02-15 17:33:00
12:53 PM,25.0,16.0,69,29.95,7.0,WNW,11.5,20.7,0.00,,Overcast,300,2014-02-15 17:53:00
1:01 PM,25.0,15.1,66,29.90,8.0,NW,16.1,21.9,N/A,,Overcast,310,2014-02-15 18:01:00
1:11 PM,25.0,15.1,66,29.90,8.0,NW,16.1,-,N/A,,Overcast,310,2014-02-15 18:11:00
1:21 PM,25.0,15.1,66,29.90,9.0,WNW,11.5,-,N/A,,Overcast,290,2014-02-15 18:21:00
1:30 PM,25.0,14.0,63,29.90,10.0,NW,13.8,-,N/A,,Overcast,320,2014-02-15 18:30:00
1:53 PM,25.0,14.0,63,29.96,10.0,WNW,13.8,-,N/A,,Overcast,290,2014-02-15 18:53:00
2:43 PM,26.1,14.0,60,29.91,10.0,West,11.5,-,N/A,,Mostly Cloudy,270,2014-02-15 19:43:00
2:53 PM,28.0,14.0,56,29.97,10.0,West,15.0,20.7,N/A,,Overcast,280,2014-02-15 19:53:00
3:53 PM,27.0,10.9,51,29.98,10.0,West,12.7,-,N/A,,Clear,280,2014-02-15 20:53:00
4:53 PM,26.1,8.1,47,30.01,10.0,WNW,16.1,-,N/A,,Clear,300,2014-02-15 21:53:00
5:53 PM,24.1,7.0,48,30.04,10.0,West,11.5,-,N/A,,Clear,280,2014-02-15 22:53:00
6:53 PM,21.9,7.0,53,30.06,10.0,West,10.4,-,N/A,,Clear,260,2014-02-15 23:53:00
7:53 PM,19.9,5.0,52,30.11,10.0,West,12.7,-,N/A,,Clear,270,2014-02-16 00:53:00
8:53 PM,18.0,5.0,57,30.11,10.0,West,8.1,-,N/A,,Clear,270,2014-02-16 01:53:00
9:53 PM,16.0,6.1,65,30.11,10.0,West,8.1,-,N/A,,Clear,260,2014-02-16 02:53:00
10:53 PM,15.1,5.0,64,30.11,10.0,West,5.8,-,N/A,,Clear,270,2014-02-16 03:53:00
11:53 PM,14.0,5.0,67,30.10,10.0,WSW,4.6,-,N/A,,Clear,240,2014-02-16 04:53:00